Hebbronville, TX

12:15 AM CST on February 10, 2016 (GMT -0600)
Hogg County

Weather History for KHBV - January, 2014

Change the Weather History Date:

Monday, January 20, 2014

  Actual Average (KLRD) Record (KLRD)
Temperature  
Mean Temperature 66 °F 57 °F  
Max Temperature 82 °F 67 °F 90 °F (1954)
Min Temperature 49 °F 46 °F 24 °F (1978)
Degree Days  
Heating Degree Days 0 9  
Month to date heating degree days 196  
Since 1 July heating degree days 586  
Cooling Degree Days 0 1  
Month to date cooling degree days 20  
Year to date cooling degree days 20  
Growing Degree Days 16 (Base 50)    
Moisture  
Dew Point 47 °F    
Average Humidity 60    
Maximum Humidity 99    
Minimum Humidity 20    
Precipitation  
Precipitation 0.00 in 0.03 in 0.31 in (1976)
Month to date precipitation 0.58  
Year to date precipitation 0.58  
Sea Level Pressure  
Sea Level Pressure 30.03 in    
Wind  
Wind Speed 6 mph (SSW)    
Max Wind Speed 16 mph    
Max Gust Speed 23 mph    
Visibility 8 miles    
Events Fog    
T = Trace of Precipitation, MM = Missing Value Source: NWS Daily Summary

Daily Weather History Graph

Daily Weather History Graph

Search for Another Location

Airport or City:

Trip Planner

Search our weather history database for the weather conditions in past years. The results will help you decide how hot, cold, wet, or windy it might be!

Date:

Astronomy

Jan. 20, 2014 Rise Set
Actual Time 7:25 AM CST 6:06 PM CST
Civil Twilight 7:00 AM CST 6:31 PM CST
Nautical Twilight 6:32 AM CST 7:00 PM CST
Astronomical Twilight 6:04 AM CST 7:28 PM CST
Moon 10:14 PM CST (1/20) 9:51 AM CST (1/20)
Length of Visible Light 11h 31m
Length of Day
10h 41m
Waning Gibbous, 82% of the Moon is Illuminated
Jan 20
Waning Gibbous
Jan 23
Last Quarter
Jan 30
New
Feb 6
First Quarter
Feb 14
Full

Hourly Weather History & Observations

Time (CST) Temp. Dew Point Humidity Pressure Visibility Wind Dir Wind Speed Gust Speed Precip Events Conditions
12:15 AM 57.6 °F 52.9 °F 84% 30.14 in 10.0 mi SSE 4.6 mph - N/A   Clear
12:35 AM 56.7 °F 52.9 °F 87% 30.13 in 10.0 mi SSE 5.8 mph - N/A   Scattered Clouds
12:55 AM 56.7 °F 53.8 °F 90% 30.12 in 10.0 mi SSE 4.6 mph - N/A   Scattered Clouds
1:15 AM 56.3 °F 53.6 °F 91% 30.12 in 10.0 mi SSE 4.6 mph - N/A   Mostly Cloudy
1:35 AM 56.1 °F 53.6 °F 91% 30.11 in 10.0 mi SSE 3.5 mph - N/A   Overcast
1:55 AM 55.9 °F 53.8 °F 92% 30.10 in 10.0 mi SSE 4.6 mph - N/A   Overcast
2:15 AM 56.7 °F 54.9 °F 94% 30.09 in 5.0 mi SSE 6.9 mph - N/A   Overcast
2:35 AM 57.2 °F 55.8 °F 95% 30.09 in 1.0 mi SSE 8.1 mph - N/A   Overcast
2:55 AM 57.2 °F 56.3 °F 97% 30.08 in 0.2 mi SSE 5.8 mph - N/A Fog Fog
3:15 AM 57.2 °F 56.3 °F 97% 30.07 in 0.2 mi SSE 5.8 mph - N/A Fog Fog
3:35 AM 56.7 °F 55.9 °F 97% 30.06 in 1.0 mi SSE 4.6 mph - N/A   Overcast
3:55 AM 56.3 °F 55.6 °F 97% 30.07 in 1.0 mi South 3.5 mph - N/A   Overcast
4:15 AM 55.6 °F 54.9 °F 97% 30.06 in 1.8 mi South 4.6 mph - N/A   Mostly Cloudy
4:35 AM 54.5 °F 53.8 °F 97% 30.06 in 0.5 mi SSW 3.5 mph - N/A Fog Fog
4:55 AM 53.1 °F 52.3 °F 97% 30.05 in 0.2 mi South 3.5 mph - N/A Fog Fog
5:15 AM 52.0 °F 51.3 °F 97% 30.05 in 1.0 mi Calm Calm - N/A   Mist
5:35 AM 50.9 °F 50.4 °F 98% 30.05 in 0.5 mi South 3.5 mph - N/A Fog Fog
5:55 AM 50.4 °F 50.0 °F 99% 30.05 in 1.2 mi South 4.6 mph - N/A   Mist
6:15 AM 50.4 °F 50.0 °F 99% 30.06 in 3.0 mi South 3.5 mph - N/A   Clear
6:35 AM 50.4 °F 50.0 °F 99% 30.06 in 5.0 mi SSE 3.5 mph - N/A   Clear
6:55 AM 50.5 °F 50.0 °F 98% 30.05 in 5.0 mi South 4.6 mph - N/A   Clear
7:15 AM 50.0 °F 49.5 °F 98% 30.05 in 4.0 mi South 4.6 mph - N/A   Clear
7:35 AM 49.8 °F 49.3 °F 98% 30.06 in 3.0 mi South 4.6 mph - N/A   Clear
7:55 AM 50.0 °F 49.5 °F 98% 30.06 in 2.5 mi South 4.6 mph - N/A   Clear
8:15 AM 50.7 °F 50.4 °F 99% 30.06 in 3.0 mi South 4.6 mph - N/A   Clear
8:35 AM 53.2 °F 52.7 °F 98% 30.06 in 5.0 mi South 4.6 mph - N/A   Clear
8:55 AM 55.9 °F 55.4 °F 98% 30.07 in 10.0 mi South 4.6 mph - N/A   Clear
9:15 AM 59.4 °F 57.4 °F 93% 30.07 in 10.0 mi South 8.1 mph - N/A   Clear
9:35 AM 63.5 °F 56.8 °F 79% 30.07 in 10.0 mi South 6.9 mph - N/A   Clear
9:55 AM 66.4 °F 56.5 °F 70% 30.08 in 10.0 mi South 9.2 mph - N/A   Clear
10:15 AM 68.5 °F 56.1 °F 64% 30.08 in 10.0 mi South 9.2 mph - N/A   Clear
10:35 AM 70.7 °F 55.6 °F 59% 30.08 in 10.0 mi South 10.4 mph - N/A   Clear
10:55 AM 72.0 °F 54.9 °F 55% 30.07 in 10.0 mi SSE 10.4 mph - N/A   Clear
11:15 AM 73.4 °F 54.3 °F 51% 30.07 in 10.0 mi South 9.2 mph - N/A   Clear
11:35 AM 74.5 °F 53.1 °F 47% 30.05 in 10.0 mi South 10.4 mph - N/A   Clear
11:55 AM 75.4 °F 52.7 °F 45% 30.04 in 10.0 mi SSW 10.4 mph - N/A   Clear
12:15 PM 76.5 °F 51.6 °F 42% 30.03 in 10.0 mi SSW 8.1 mph - N/A   Clear
12:35 PM 76.8 °F 50.7 °F 40% 30.01 in 10.0 mi South 5.8 mph - N/A   Clear
12:55 PM 77.9 °F 50.0 °F 38% 30.00 in 10.0 mi WSW 8.1 mph - N/A   Clear
1:15 PM 78.4 °F 48.6 °F 35% 29.98 in 10.0 mi WSW 6.9 mph - N/A   Clear
1:35 PM 79.0 °F 47.8 °F 33% 29.95 in 10.0 mi SSW 4.6 mph - N/A   Clear
1:55 PM 79.3 °F 47.1 °F 32% 29.93 in 7.0 mi SSW 4.6 mph - N/A   Clear
2:15 PM 80.4 °F 45.7 °F 29% 29.93 in 10.0 mi SSW 3.5 mph - N/A   Clear
2:35 PM 81.3 °F 45.0 °F 28% 29.92 in 10.0 mi SSW 8.1 mph - N/A   Clear
2:55 PM 82.0 °F 43.7 °F 26% 29.92 in 10.0 mi SW 5.8 mph - N/A   Clear
3:15 PM 82.2 °F 44.2 °F 26% 29.92 in 10.0 mi South 9.2 mph - N/A   Clear
3:35 PM 82.2 °F 43.0 °F 25% 29.91 in 10.0 mi SW 6.9 mph - N/A   Clear
3:55 PM 82.4 °F 42.1 °F 24% 29.91 in 10.0 mi WSW 9.2 mph - N/A   Clear
4:15 PM 82.4 °F 41.2 °F 23% 29.91 in 10.0 mi SSW 3.5 mph - N/A   Clear
4:35 PM 82.0 °F 40.3 °F 23% 29.91 in 10.0 mi WSW 5.8 mph - N/A   Clear
4:55 PM 82.0 °F 40.3 °F 23% 29.92 in 10.0 mi WSW 5.8 mph - N/A   Clear
5:15 PM 81.9 °F 39.0 °F 22% 29.93 in 10.0 mi WSW 4.6 mph - N/A   Clear
5:35 PM 81.9 °F 36.9 °F 20% 29.94 in 10.0 mi WNW 6.9 mph - N/A   Clear
5:55 PM 80.1 °F 36.0 °F 20% 29.94 in 10.0 mi West 4.6 mph - N/A   Clear
6:15 PM 78.1 °F 37.2 °F 23% 29.95 in 10.0 mi West 4.6 mph - N/A   Clear
6:35 PM 75.7 °F 37.2 °F 25% 29.96 in 10.0 mi West 6.9 mph - N/A   Clear
6:55 PM 73.9 °F 36.5 °F 26% 29.96 in 10.0 mi West 5.8 mph - N/A   Clear
7:15 PM 72.1 °F 36.7 °F 27% 29.97 in 10.0 mi West 5.8 mph - N/A   Clear
7:35 PM 70.0 °F 37.0 °F 30% 29.98 in 10.0 mi West 8.1 mph - N/A   Clear
7:55 PM 68.5 °F 37.4 °F 32% 29.98 in 10.0 mi West 8.1 mph - N/A   Clear
8:15 PM 67.1 °F 38.1 °F 34% 29.99 in 10.0 mi WNW 8.1 mph - N/A   Clear
8:35 PM 63.9 °F 39.2 °F 40% 30.01 in 10.0 mi NNW 8.1 mph - N/A   Clear
8:55 PM 62.1 °F 39.9 °F 44% 30.02 in 10.0 mi NW 8.1 mph - N/A   Clear
9:15 PM 61.9 °F 39.9 °F 44% 30.03 in 10.0 mi NW 8.1 mph - N/A   Clear
9:35 PM 61.0 °F 40.3 °F 46% 30.03 in 10.0 mi WNW 8.1 mph - N/A   Clear
9:55 PM 61.7 °F 39.9 °F 45% 30.03 in 10.0 mi WNW 6.9 mph - N/A   Clear
10:15 PM 62.8 °F 39.2 °F 42% 30.04 in 10.0 mi WNW 8.1 mph - N/A   Clear
10:35 PM 62.6 °F 39.4 °F 42% 30.05 in 10.0 mi NW 8.1 mph - N/A   Clear
10:55 PM 61.9 °F 39.9 °F 44% 30.06 in 10.0 mi NW 8.1 mph - N/A   Clear
11:15 PM 62.1 °F 40.1 °F 44% 30.06 in 10.0 mi NW 8.1 mph - N/A   Clear
11:35 PM 62.2 °F 39.7 °F 44% 30.07 in 10.0 mi NW 8.1 mph - N/A   Clear
11:55 PM 63.3 °F 37.0 °F 38% 30.09 in 10.0 mi NNW 16.1 mph 23.0 mph N/A   Clear